| time (UTC) | temp C | wind direction | speed KPH | gust KPH | rain 1hr cm | rain 24hr cm | rain mn cm | humidity % | barometer mb |
| 20260504081548 | 19 | 200 | 3.2 | 9.7 | 0.00 | 0.00 | 0.00 | 47 | 1015.3 |
| 20260504050002 | 7 | 174 | 0.0 | 0.0 | 0.00 | 0.00 | 0.00 | 85 | 1015.4 |
| 20260504044600 | 6 | 174 | 0.0 | 0.0 | 0.00 | 0.00 | 0.00 | 88 | 1015.4 |
| 20260504043113 | 6 | 174 | 0.0 | 0.0 | 0.00 | 0.00 | 0.00 | 86 | 1015.4 |
| 20260504041554 | 5 | 174 | 0.0 | 0.0 | 0.00 | 0.00 | 0.00 | 85 | 1015.4 |
| 20260504040050 | 5 | 174 | 0.0 | 0.0 | 0.00 | 0.00 | 0.00 | 85 | 1015.4 |
| 20260504034552 | 5 | 174 | 0.0 | 0.0 | 0.00 | 0.00 | 0.00 | 84 | 1015.3 |
| 20260504033047 | 5 | 174 | 0.0 | 0.0 | 0.00 | 0.00 | 0.00 | 83 | 1015.3 |
| 20260504031552 | 6 | 174 | 0.0 | 0.0 | 0.00 | 0.00 | 0.00 | 84 | 1015.3 |
| 20260504030100 | 6 | 174 | 0.0 | 0.0 | 0.00 | 0.00 | 0.00 | 82 | 1015.3 |
| 20260504024544 | 6 | 174 | 0.0 | 0.0 | 0.00 | 0.00 | 0.00 | 82 | 1015.3 |
| 20260504023042 | 6 | 174 | 0.0 | 0.0 | 0.00 | 0.00 | 0.00 | 79 | 1015.3 |
| 20260504021546 | 6 | 174 | 0.0 | 0.0 | 0.00 | 0.00 | 0.00 | 79 | 1015.3 |
| 20260504020040 | 6 | 174 | 0.0 | 0.0 | 0.00 | 0.00 | 0.00 | 79 | 1015.4 |
| 20260504014538 | 6 | 174 | 0.0 | 0.0 | 0.00 | 0.00 | 0.00 | 78 | 1015.3 |
| 20260504013038 | 6 | 174 | 0.0 | 0.0 | 0.00 | 0.00 | 0.00 | 75 | 1015.3 |
| 20260504011535 | 7 | 174 | 0.0 | 0.0 | 0.00 | 0.00 | 0.00 | 74 | 1015.2 |
| 20260504010032 | 7 | 174 | 0.0 | 0.0 | 0.00 | 0.00 | 0.00 | 73 | 1015.3 |
| 20260504004541 | 7 | 174 | 0.0 | 0.0 | 0.00 | 0.00 | 0.00 | 73 | 1015.3 |
| 20260504003031 | 7 | 174 | 0.0 | 0.0 | 0.00 | 0.00 | 0.00 | 72 | 1015.3 |
| 20260504001534 | 7 | 174 | 0.0 | 0.0 | 0.00 | 0.00 | 0.00 | 72 | 1015.3 |
| 20260504000026 | 7 | 174 | 0.0 | 0.0 | 0.00 | 0.00 | 0.00 | 71 | 1015.3 |
| 20260503234527 | 7 | 174 | 0.0 | 0.0 | 0.00 | 0.00 | 0.00 | 71 | 1015.2 |
| 20260503233022 | 8 | 174 | 0.0 | 0.0 | 0.00 | 0.00 | 0.00 | 70 | 1015.2 |
| 20260503231522 | 8 | 174 | 0.0 | 0.0 | 0.00 | 0.00 | 0.00 | 70 | 1015.1 |
| 20260503230020 | 8 | 174 | 0.0 | 0.0 | 0.00 | 0.00 | 0.00 | 67 | 1015.0 |
| 20260503224516 | 8 | 174 | 0.0 | 0.0 | 0.00 | 0.00 | 0.00 | 66 | 1015.0 |
| 20260503223015 | 9 | 174 | 0.0 | 0.0 | 0.00 | 0.00 | 0.00 | 66 | 1015.1 |
| 20260503221513 | 9 | 174 | 0.0 | 0.0 | 0.00 | 0.00 | 0.00 | 66 | 1015.0 |
| 20260503220020 | 10 | 174 | 0.0 | 0.0 | 0.00 | 0.00 | 0.00 | 63 | 1014.9 |
| 20260503214520 | 10 | 174 | 0.0 | 0.0 | 0.00 | 0.00 | 0.00 | 63 | 1014.9 |
| 20260503213013 | 11 | 174 | 0.0 | 0.0 | 0.00 | 0.00 | 0.00 | 60 | 1015.0 |
| 20260503211512 | 11 | 174 | 0.0 | 0.0 | 0.00 | 0.00 | 0.00 | 60 | 1015.0 |
| 20260503210013 | 12 | 174 | 0.0 | 0.0 | 0.00 | 0.00 | 0.00 | 58 | 1014.8 |
| 20260503204511 | 12 | 174 | 0.0 | 0.0 | 0.00 | 0.00 | 0.00 | 56 | 1014.8 |
| 20260503203009 | 13 | 174 | 0.0 | 0.0 | 0.00 | 0.00 | 0.00 | 54 | 1014.9 |
| 20260503201506 | 13 | 174 | 0.0 | 0.0 | 0.00 | 0.00 | 0.00 | 53 | 1014.9 |
| 20260503200005 | 14 | 174 | 0.0 | 0.0 | 0.00 | 0.00 | 0.00 | 50 | 1014.9 |
| 20260503194504 | 15 | 174 | 0.0 | 0.0 | 0.00 | 0.00 | 0.00 | 49 | 1014.9 |
| 20260503193006 | 16 | 174 | 0.0 | 1.6 | 0.00 | 0.00 | 0.00 | 47 | 1014.8 |
| 20260503191503 | 16 | 174 | 0.0 | 0.0 | 0.00 | 0.00 | 0.00 | 45 | 1014.7 |
| 20260503190006 | 17 | 174 | 0.0 | 3.2 | 0.00 | 0.00 | 0.00 | 42 | 1014.5 |
| 20260503184504 | 18 | 174 | 0.0 | 0.0 | 0.00 | 0.00 | 0.00 | 39 | 1014.3 |
| 20260503183002 | 19 | 173 | 0.0 | 4.8 | 0.00 | 0.00 | 0.00 | 37 | 1014.2 |
| 20260503181506 | 20 | 183 | 3.2 | 11.3 | 0.00 | 0.00 | 0.00 | 37 | 1014.0 |
| 20260503180003 | 20 | 261 | 0.0 | 1.6 | 0.00 | 0.00 | 0.00 | 35 | 1013.7 |
| 20260503174618 | 21 | 248 | 0.0 | 4.8 | 0.00 | 0.00 | 0.00 | 33 | 1013.8 |
| 20260503173111 | 21 | 278 | 0.0 | 8.0 | 0.00 | 0.00 | 0.00 | 31 | 1013.7 |
| 20260503171559 | 22 | 276 | 4.8 | 22.5 | 0.00 | 0.00 | 0.00 | 31 | 1013.6 |
| 20260503170113 | 22 | 275 | 3.2 | 19.3 | 0.00 | 0.00 | 0.00 | 30 | 1013.6 |